Location: Dos Palmas
(32.4468°N, 116.8732°W)
Time: 02:24:20
(UTC+00:00)

Cosmos 1975 Rocket - Pass Details

Date: 20 June 2021
Orbit: 604 x 633 km, 82.5° (Epoch: 27 July)

Event Time Altitude Azimuth Distance (km) Brightness Sun altitude
Exits shadow 04:35:57 19° 188° (S) 1,464 4.6 -17.6°
Maximum altitude 04:39:03 84° 277° (W) 620 3.0 -18.0°
Drops below altitude 10° 04:43:27 10° 5° (N) 1,983 6.2 -18.7°
Sets 04:45:41 0° 6° (N) 2,897 7.1 -19.0°
